Retour au catalogue

STARLINK-5770

ActifCommunicationsVLEO
NORAD 56026·PAYLOAD·🇺🇸 United States

Lancé Mar 24, 2023 depuis Cape Canaveral Space Force Station

Loading…

Prochains Passages (prochaines 24 heures)

TLE

FraisSource: CelesTrak SupGP

Époque: Sep 14, 2026, 21:19 UTC

1 56026C 23042AS  26257.88868056  .00056995  00000+0  20645-2 0  2570
2 56026  43.0022  56.4095 0001398 271.2137 131.3066 15.27548726    13

Suivez STARLINK-5770 en temps réel avec AllMySat

Download on the App Store